{"data":{"norad_id":44800,"intl_designator":"2019-080A","name":"TIBA-1","alt_names":[],"object_type":"PAYLOAD","status":"ACTIVE","operator":null,"country":"EGYP","launch_date":"2019-11-26","launch_site_code":"FRGUI","launch_vehicle":null,"mission":null,"orbit_class":"UNKNOWN","rcs_meters":null,"size_class":null,"mass_kg":null,"dimensions":null,"purposes":["comms"],"wikipedia_slug":null,"has_3d_model":false,"image_url":null,"decayed_at":null,"tle_current":{"epoch":"2026-05-25T03:54:46.287936Z","epoch_age_seconds":60299,"freshness":"FRESH","line1":"1 44800U 19080A   26145.16303574  .00000153  00000+0  00000+0 0  9998","line2":"2 44800   0.0531 347.5067 0001996  91.9346 257.5013  1.00273326 23828","mean_motion":1.00273326,"eccentricity":0.0001996,"inclination_deg":0.0531,"raan_deg":347.5067,"arg_perigee_deg":91.9346,"mean_anomaly_deg":257.5013,"bstar":0,"rev_number":2382,"period_min":1436.074834099,"perigee_km":35777.746974209,"apogee_km":35794.578962757,"semimajor_km":42164.299968483,"source":"CELESTRAK","updated_at":"2026-05-25T13:38:14.090312Z"}}}